Location: Unspecified
(0.0000°N, 0.0000°E)
Time: 19:51:47
(UTC+00:00)

Courier 1B - Visible Passes

Search period start: 26 July 2016 00:00
Search period end: 05 August 2016 00:00
Orbit: 962 x 1209 km, 28.3° (Epoch: 25 July)

Date Brightness Start Highest point End Pass type
(mag) Time Alt. Az. Time Alt. Az. Time Alt. Az.
26 Jul 9.3 20:16:29 10° NNW 20:20:39 18° NNE 20:20:39 18° NNE visible
27 Jul 9.6 19:23:41 10° N 19:26:49 13° NNE 19:29:54 10° NE visible
27 Jul 9.6 21:15:12 10° NW 21:17:05 19° NW 21:17:05 19° NW visible
28 Jul 9.9 18:32:13 10° NNE 18:32:40 10° NNE 18:33:06 10° NNE visible
28 Jul 8.7 20:21:45 10° NW 20:26:40 31° N 20:26:40 31° N visible
29 Jul 8.9 19:28:25 10° NNW 19:33:47 24° NNE 19:36:17 19° ENE visible
29 Jul 9.7 21:21:23 10° WNW 21:23:11 19° WNW 21:23:11 19° WNW visible
30 Jul 9.4 18:35:13 10° NNW 18:39:48 18° NNE 18:44:14 10° ENE visible
30 Jul 8.1 20:27:37 10° NW 20:32:50 49° NNW 20:32:50 49° NNW visible
31 Jul 8.2 19:33:59 10° NW 19:40:32 43° NNE 19:42:32 35° ENE visible
31 Jul 9.9 21:28:08 10° WNW 21:29:26 16° W 21:29:26 16° W visible
01 Aug 9.8 05:15:10 10° S 05:17:46 12° SSE 05:20:24 10° SE visible
01 Aug 8.7 18:40:26 10° NW 18:46:40 32° NNE 18:52:15 11° E visible
01 Aug 8.2 20:34:02 10° WNW 20:39:09 51° W 20:39:09 51° W visible
02 Aug 7.5 19:40:05 10° WNW 19:47:07 81° NNE 19:48:55 52° ESE visible
02 Aug 10.2 21:35:37 10° W 21:35:49 11° W 21:35:49 11° W visible
03 Aug 9.5 05:19:42 10° SSW 05:24:43 21° SSE 05:29:55 10° ESE visible
03 Aug 7.9 18:46:15 10° NW 18:53:19 58° NNE 18:58:42 16° ESE visible
03 Aug 8.8 20:41:04 10° W 20:45:37 33° WSW 20:45:37 33° WSW visible
04 Aug 9.6 04:27:23 11° S 04:30:41 15° SSE 04:34:24 10° ESE visible
04 Aug 7.9 19:46:44 10° WNW 19:53:39 56° SSW 19:55:25 44° SSE visible
